Hourly Data Report for May 26, 2012

All times are specified in Local Standard Time (LST). Add 1 hour to adjust for Daylight Saving Time where and when it is observed.

DEER LAKE A
NEWFOUNDLAND

49°12'33.000" N
57°23'40.000" W
21.90 m
8401502
71809
YDF

Download Data

Hourly Data (May 2012)
Hourly Data Report for May 26, 2012
Temp Definition
°C
Dew Point Temp Definition
°C
Rel Hum Definition
%
Wind Dir Definition
10's deg

Wind Spd Definition
km/h
Visibility Definition
km
Stn Press Definition
kPa
Hmdx Definition


Wind Chill Definition


Weather Definition


TIME
00:30 Legend Double Dagger 13.4 4.1 53 24 13 10.0 101.40     LegendNANA
01:30 Legend Double Dagger 10.9 4.0 62 14 4 10.0 101.35     LegendNANA
02:30 Legend Double Dagger 13.0 3.7 53 24 6 10.0 101.31     Mainly Clear
03:30 Legend Double Dagger 13.2 4.4 55 23 14 10.0 101.27     LegendNANA
04:30 Legend Double Dagger 7.4 5.2 86   0 10.0 101.22     LegendNANA
05:30 Legend Double Dagger 9.6 7.2 85 5 8 10.0 101.16     Mostly Cloudy
06:30 Legend Double Dagger 15.1 7.2 59 19 15 10.0 101.10     LegendNANA
07:30 Legend Double Dagger 16.5 9.0 61 22 36 10.0 101.06     LegendNANA
08:30 Legend Double Dagger 17.2 9.9 62 23 22 10.0 100.96     Mostly Cloudy
09:30 Legend Double Dagger 19.8 11.9 60 23 30 10.0 100.83     LegendNANA
10:30 Legend Double Dagger 17.9 12.0 68 23 36 10.0 100.86     LegendNANA
11:30 Legend Double Dagger 17.8 12.1 69 22 26 10.0 100.79     Cloudy
12:30 Legend Double Dagger 17.4 12.6 73 22 27 10.0 100.72     LegendNANA
13:30 Legend Double Dagger 18.0 12.7 71 22 33 10.0 100.63     LegendNANA
14:30 Legend Double Dagger 17.0 12.6 75 22 35 10.0 100.59     Cloudy
15:30 Legend Double Dagger 16.3 12.9 80 22 29 10.0 100.54     LegendNANA
16:30 Legend Double Dagger 13.8 13.0 95 21 29 9.7 100.53     Rain Showers,Fog
17:30 Legend Double Dagger 14.7 13.1 90 22 19 10.0 100.50     Cloudy
18:30 Legend Double Dagger 13.8 10.4 80 26 21 10.0 100.58     LegendNANA
19:30 Legend Double Dagger 12.2 9.1 81 26 17 10.0 100.61     LegendNANA
20:30 Legend Double Dagger 10.6 7.7 82 23 12 10.0 100.70     Mostly Cloudy
21:30 Legend Double Dagger 10.1 4.3 67 22 19 10.0 100.72     LegendNANA
22:30 Legend Double Dagger 9.5 2.8 63 23 22 10.0 100.65     LegendNANA
23:30 Legend Double Dagger 9.0 3.0 66 25 20 10.0 100.68     Mainly Clear

Notes on Data Quality.

Legend

  • E = Estimated
  • M = Missing
  • NA = Not Available
  • ‡ = Partner data that is not subject to review by the National Climate Archives
Date modified: